Regional Weather Roundup
Issued by NWS

Home | Current Version | Previous Version | Text Only | Print | Product List | Glossary Off
Versions: 1 2 3 4 5 6 7 8 9 10 11 12 13 14 15 16 17 18 19 20 21 22 23 24 25 26 27 28 29 30 31 32 33 34 35 36 37 38 39 40 41 42 43 44 45 46 47 48 49 50

060
ASUS45 KPSR 251110
RWRAZ

ARIZONA HOURLY REGIONAL WEATHER ROUNDUP
NATIONAL WEATHER SERVICE PHOENIX AZ
400 AM MST SAT FEB 25 2017

NOTE: FAIR INDICATES FEW OR NO CLOUDS BELOW 12,000 FEET WITH NO
SIGNIFICANT WEATHER AND/OR OBSTRUCTIONS TO VISIBILITY.

AZZ001>003-036-251200-
NORTHWEST ARIZONA

CITY           SKY/WX    TMP DP  RH WIND       PRES   REMARKS
BULLHEAD CITY  CLEAR     41  28  60 CALM      30.13S
KINGMAN        CLEAR     26   8  46 SE3       30.09F
$$

AZZ004>008-015-016-018-251200-
NORTH CENTRAL ARIZONA

CITY           SKY/WX    TMP DP  RH WIND       PRES   REMARKS
GRAND CANYON   CLEAR     13   9  84 CALM      30.06F
WILLIAMS       CLEAR     16  10  79 S8        30.06S WCI   5
PRESCOTT       CLEAR     23  14  68 S3        30.09F
FLAGSTAFF      CLEAR     16  10  77 SW5       30.05F WCI   9
PAYSON         CLEAR     27  19  74 CALM      30.12S
PAGE           CLEAR     29   6  38 SE3       30.09F
$$

AZZ009>014-017-251200-
NORTHEAST ARIZONA

CITY           SKY/WX    TMP DP  RH WIND       PRES   REMARKS
WINSLOW        CLEAR     20  13  74 S3        30.09F
SAINT JOHNS    CLEAR     21  12  68 S6        30.07F WCI  13
WINDOW ROCK    CLEAR     16   8  71 CALM      30.05F
SHOW LOW       CLEAR     23  14  68 S9        30.07F WCI  13
$$

AZZ023-251200-
GREATER PHOENIX AREA

CITY           SKY/WX    TMP DP  RH WIND       PRES   REMARKS
PHOENIX        CLEAR     46  30  53 E6        30.10F
BUCKEYE        CLEAR     39  32  75 SE6       30.12S WCI  35
LUKE AFB       CLEAR     40  31  69 NE3       30.10F
DEER VALLEY    CLEAR     43  28  55 NE10      30.10F
SCOTTSDALE     CLEAR     40  32  73 CALM      30.12S
MESA-GATEWAY   CLEAR     36  32  87 E6        30.12S WCI  31
$$

AZZ027-028-251200-
SOUTHWEST MARICOPA COUNTY AND PINAL COUNTY

CITY           SKY/WX    TMP DP  RH WIND       PRES   REMARKS
CASA GRANDE    NOT AVBL
$$

AZZ503-504-507>509-251200-
SOUTHEAST ARIZONA

CITY           SKY/WX    TMP DP  RH WIND       PRES   REMARKS
TUCSON         CLEAR     38  18  44 SE7       30.12F WCI  33
DAVIS-MONTHAN  CLEAR     35  19  51 SE8       30.11F WCI  29
NOGALES        CLEAR     29  17  61 E3        30.11F
SIERRA VISTA   CLEAR     33  16  49 S6        30.11F WCI  27
DOUGLAS        CLEAR     28  14  55 N7        30.11F WCI  21
SAFFORD        CLEAR     29  13  51 NE3       30.11S
$$

AZZ020-021-025-026-031-251200-
SOUTHWEST ARIZONA

CITY           SKY/WX    TMP DP  RH WIND       PRES   REMARKS
YUMA           CLEAR     48  31  51 N3        30.10F
$$

CAZ031-033-041-043-047-048-061-251200-
SOUTHERN CALIFORNIA

CITY           SKY/WX    TMP DP  RH WIND       PRES   REMARKS
DOWNTOWN L.A.  CLEAR     47  36  65 CALM      30.12F
L.A. AIRPORT   CLEAR     45  39  79 E5        30.13F
SAN DIEGO      CLEAR     48  38  68 CALM      30.15F
BURBANK        CLEAR     41  31  67 CALM      30.11F
ONTARIO        CLEAR     40  33  76 NE5       30.12F
RIVERSIDE      CLEAR     40  35  83 NE5       30.13F
PALM SPRINGS   CLEAR     48  36  63 CALM      30.13F
EL CENTRO NAS  CLEAR     42  29  59 W5        30.11F
IMPERIAL       CLEAR     44  31  60 CALM      30.10F
BLYTHE         CLEAR     43  38  82 N8        30.11F
NEEDLES        CLEAR     44  27  51 S6        30.11F
$$

NVZ020-UTZ003-251200-
SOUTHERN NEVADA-UTAH

CITY           SKY/WX    TMP DP  RH WIND       PRES   REMARKS
LAS VEGAS      CLEAR     39  21  48 S6        30.07F WCI  35
SALT LAKE CITY MOCLDY    22  12  65 SE8       30.11F WCI  12
$$

NMZ009-TXZ055-251200-
NEW MEXICO-WEST TEXAS

CITY           SKY/WX    TMP DP  RH WIND       PRES   REMARKS
ALBUQUERQUE    CLEAR     26   0  32 CALM      30.07F
EL PASO        CLEAR     47   3  16 SW12      30.06S
$$


........................KEY........................
SKY/WX - SKY CONDITION/WEATHER
TMP    - TEMPERATURE IN FAHRENHEIT
DP     - DEW POINT IN FAHRENHEIT
RH     - RELATIVE HUMIDITY IN PERCENT
WIND   - DIRECTION AND SPEED IN MILES PER HOUR (MPH)
VRB    - VARIABLE WIND DIRECTION
PRES   - MEAN SEA LEVEL PRESSURE IN INCHES OF MERCURY
         F - FALLING PRESSURE   R - RISING PRESSURE
         S - STEADY PRESSURE
VSB    - VISIBILITY IN MILES
HX     - HEAT INDEX IN FAHRENHEIT
WCI    - WIND CHILL INDEX IN FAHRENHEIT
TC     - TEMPERATURE IN CELSIUS WHICH IS ALSO KNOWN AS
         TEMPERATURE IN CENTIGRADE
AFB    - AIR FORCE BASE
         LUKE AFB IS LUKE AIR FORCE BASE
         DAVIS-MONTHAN IS DAVIS-MONTHAN AIR FORCE BASE
NAS    - NAVAL AIR STATION
         EL CENTRO NAS IS EL CENTRO NAVAL AIR STATION
N/A    - NOT AVAILABLE





USA.gov is the U.S. government's official web portal to all federal, state and local government web resources and services.